Home > Time Zones > World Clock > Weather > Italy > Genoa > Past weeks

Flag for Italy Weather past 2 weeks in Genoa, Italy

Now
61 °F

Sunny.


Feels Like: 61 °F
Forecast: 51 / 64 °F
Wind: 9 mph from West

Location: Genova / Sestri

Current Time: Apr 1, 2015 at 7:10:09 PM

Latest Report: Apr 1, 2015 at 6:50 PM


Visibility: 10 mi

Pressure: 29.95 "Hg

Humidity: 52%

Dew point: 43 °F

Location of GenoaLocation

Historic Weather in Genoa — Graph

°F

Genoa temperature yesterday

Maximum temperature yesterday: 63 °F (at 12:20 PM)
Minimum temperature yesterday: 54 °F (at 3:50 AM)
Average temperature yesterday: 58 °F

Past Weeks' High & Low Weather Summary

 TemperatureHumidityPressure
High70 °F (Mar 27, 1:50 PM)94% (Mar 26, 8:50 PM)30.27 "Hg (Mar 26, 8:50 PM)
Low48 °F (Mar 22, 6:20 AM)12% (Mar 27, 4:20 PM)29.42 "Hg (Mar 25, 1:20 PM)
Average57 °F66%29.92 "Hg
* Reported Mar 17 4:20 PM — Apr 1 5:50 PM, Genoa, Weather by CustomWeather, © 2015

Note: Actual official high and low records may vary slightly from our data, if they occured in-between our weather recording intervals... More about our weather records

Advertising

Genoa weather history for previous 24 hours

 ConditionsComfort  
Time TempWeatherWind HumidityBarometerVisibility
5:50 PM
Wed, Apr 1
63 °FSunny.10 mph49%29.95 "Hg10 mi
5:20 PM63 °FSunny.15 mph49%29.95 "Hg10 mi
4:50 PM63 °FSunny.14 mph59%29.95 "Hg10 mi
4:20 PM63 °FSunny.15 mph59%29.92 "Hg10 mi
3:50 PM68 °FPassing clouds.9 mph43%29.92 "HgN/A
3:20 PM70 °FPassing clouds.8 mph12%29.92 "HgN/A
2:50 PM70 °FPassing clouds.12 mph12%29.95 "HgN/A
2:20 PM70 °FPassing clouds.15 mph12%29.92 "HgN/A
1:50 PM68 °FPassing clouds.14 mph12%29.95 "HgN/A
1:20 PM68 °FPassing clouds.12 mph13%29.95 "HgN/A
12:50 PM68 °FPassing clouds.12 mph13%29.95 "HgN/A
12:20 PM68 °FPassing clouds.8 mph14%29.95 "HgN/A
11:50 AM66 °FPassing clouds.10 mph14%29.95 "HgN/A
11:20 AM66 °FPassing clouds.12 mph13%29.95 "HgN/A
10:50 AM64 °FPassing clouds.10 mph18%29.95 "HgN/A
10:20 AM64 °FPassing clouds.8 mph16%29.95 "HgN/A
9:50 AM64 °FPassing clouds.12 mph15%29.95 "HgN/A
9:20 AM63 °FPassing clouds.8 mph20%29.95 "HgN/A
8:50 AM63 °FPassing clouds.7 mph22%29.92 "HgN/A
8:20 AM57 °FSunny.2 mph41%29.92 "Hg10 mi
7:50 AM55 °FPassing clouds.5 mph36%29.89 "HgN/A
7:20 AM57 °FClear.3 mph33%29.89 "Hg10 mi
6:50 AM61 °FPassing clouds.6 mph23%29.89 "HgN/A
6:20 AM61 °FPassing clouds.6 mph29%29.89 "HgN/A
5:50 AM63 °FClear.9 mph24%29.86 "Hg10 mi
5:20 AM64 °FClear.13 mph22%29.83 "Hg10 mi
4:50 AM64 °FClear.13 mph22%29.83 "Hg10 mi
4:20 AM63 °FClear.9 mph24%29.83 "Hg10 mi
2:50 AM63 °FClear.9 mph27%29.80 "Hg10 mi
2:20 AM55 °FClear.6 mph72%29.80 "Hg10 mi
1:50 AM55 °FClear.3 mph82%29.80 "Hg10 mi
1:20 AM55 °FPassing clouds.5 mph77%29.80 "HgN/A
12:50 AM55 °FPassing clouds.6 mph82%29.80 "HgN/A
12:20 AM55 °FClear.5 mph88%29.80 "Hg10 mi
11:50 PM
Tue, Mar 31
55 °FClear.2 mph88%29.80 "Hg10 mi
11:20 PM57 °FPassing clouds.5 mph82%29.80 "HgN/A
10:50 PM57 °FPassing clouds.5 mph88%29.80 "HgN/A
10:20 PM57 °FPassing clouds.3 mph88%29.77 "HgN/A
9:50 PM57 °FPassing clouds.3 mph88%29.77 "HgN/A
9:20 PM59 °FPassing clouds.5 mph82%29.77 "HgN/A
8:50 PM57 °FPassing clouds.8 mph94%29.77 "HgN/A
8:20 PM59 °FScattered clouds.6 mph82%29.74 "HgN/A
7:50 PM59 °FScattered clouds.6 mph82%29.74 "HgN/A
7:20 PM59 °FScattered clouds.8 mph82%29.74 "HgN/A
Weather by CustomWeather, © 2015

See weather overviewHow to use our weather pages